Location: Petruro
(41.0333°N, 14.7833°E)
Time: 01:05:13
(UTC+00:00)

Tiangong - Visible Passes

Search period start: 24 October 2021 00:00
Search period end: 03 November 2021 00:00
Orbit: 381 x 390 km, 41.5° (Epoch: 23 October)

Date Brightness Start Highest point End Pass type
(mag) Time Alt. Az. Time Alt. Az. Time Alt. Az.
24 Oct 1.1 16:46:29 10° W 16:49:42 80° N 16:52:27 13° E visible
24 Oct 3.7 18:23:24 10° W 18:24:40 22° W 18:24:40 22° W visible
25 Oct 1.0 17:23:56 10° W 17:27:08 86° SSW 17:28:02 44° ESE visible
26 Oct 2.6 18:01:19 10° W 18:03:38 36° WSW 18:03:38 36° WSW visible
27 Oct 1.3 17:01:43 10° W 17:04:54 65° SSW 17:07:02 19° ESE visible
27 Oct 4.6 18:39:11 10° WSW 18:39:15 10° WSW 18:39:15 10° WSW visible
28 Oct 2.7 17:39:10 10° W 17:41:57 28° SSW 17:42:43 25° S visible
29 Oct 2.1 16:39:22 10° W 16:42:25 43° SSW 16:45:28 10° SE visible
30 Oct 3.7 17:17:05 10° WSW 17:19:16 17° SSW 17:21:26 10° SSE visible
